User: anonymous   Login
Location: Unspecified
(0.0000°N, 0.0000°E)
Time: 16:31:49
(UTC+00:00)
Language:

Oscar 11 - Orbit

View from above orbital plane
View from above orbital plane
View from above satellite
View from above satellite

Ground track
Ground track

The orbit data is extracted from the following two-line orbital elements,

1 14781U 84021B   17204.67247633 +.00000070 +00000-0 +14870-4 0  9999
2 14781 097.6945 249.0381 0010054 082.1853 278.0502 14.82911674774754
Epoch (UTC): 23 July 2017 16:08:21
Eccentricity: 0.0010054
inclination: 97.6945°
perigee height: 613 km
apogee height: 627 km
right ascension of ascending node: 249.0381°
argument of perigee: 82.1853°
revolutions per day: 14.82911674
mean anomaly at epoch: 278.0502°
orbit number at epoch: 77475

The dashed part of the orbit path shows where the satellite is in the earth's shadow,  

DLR